Hourly Weather Kozy

Today, 21 October, Wednesday

Time Temperature Precipitation Wind Pressure Humidity
00:00 +8°C° 0.3 mm 4 mps 749 mmHg 88%
01:00 +8°C° 0 mm 4 mps 749 mmHg 90%
02:00 +8°C° 0.3 mm 4 mps 748 mmHg 91%
03:00 +10°C° 0.3 mm 3 mps 748 mmHg 93%
04:00 +10°C° 0.3 mm 3 mps 748 mmHg 95%
05:00 +10°C° 0.8 mm 4 mps 748 mmHg 95%
06:00 +10°C° 0.8 mm 4 mps 748 mmHg 95%
07:00 +9°C° 0 mm 3 mps 748 mmHg 91%
08:00 +8°C° 0.4 mm 4 mps 748 mmHg 90%
09:00 +8°C° 0.4 mm 4 mps 748 mmHg 90%
10:00 +10°C° 0.4 mm 4 mps 748 mmHg 90%
11:00 +10°C° 0 mm 4 mps 748 mmHg 86%
12:00 +10°C° 0 mm 4 mps 748 mmHg 83%
13:00 +10°C° 0 mm 4 mps 747 mmHg 79%
14:00 +10°C° 0 mm 4 mps 747 mmHg 79%
15:00 +10°C° 0 mm 4 mps 747 mmHg 78%
16:00 +10°C° 0 mm 4 mps 746 mmHg 78%
17:00 +11°C° 0 mm 4 mps 747 mmHg 78%
18:00 +11°C° 0 mm 4 mps 747 mmHg 77%
19:00 +11°C° 0 mm 4 mps 747 mmHg 77%
20:00 +11°C° 0 mm 4 mps 747 mmHg 76%
21:00 +10°C° 0 mm 5 mps 746 mmHg 75%
22:00 +10°C° 0 mm 6 mps 746 mmHg 74%
23:00 +11°C° 0 mm 6 mps 746 mmHg 73%

Tomorrow, 22 October, Thursday

Time Temperature Precipitation Wind Pressure Humidity
00:00 +11°C° 0 mm 6 mps 747 mmHg 71%
01:00 +11°C° 0 mm 6 mps 747 mmHg 70%
02:00 +11°C° 0 mm 6 mps 746 mmHg 72%
03:00 +11°C° 0 mm 7 mps 746 mmHg 74%
04:00 +12°C° 0 mm 7 mps 746 mmHg 76%
05:00 +13°C° 0 mm 6 mps 747 mmHg 78%
06:00 +13°C° 0 mm 6 mps 747 mmHg 81%
07:00 +13°C° 0 mm 6 mps 748 mmHg 84%
08:00 +14°C° 0 mm 6 mps 748 mmHg 81%
09:00 +15°C° 0 mm 6 mps 749 mmHg 78%
10:00 +16°C° 0 mm 7 mps 749 mmHg 75%
11:00 +16°C° 0 mm 7 mps 749 mmHg 71%
12:00 +17°C° 0 mm 6 mps 749 mmHg 68%
13:00 +19°C° 0 mm 6 mps 749 mmHg 65%
14:00 +17°C° 0 mm 6 mps 749 mmHg 67%
15:00 +17°C° 0 mm 5 mps 749 mmHg 69%
16:00 +17°C° 0 mm 4 mps 749 mmHg 71%
17:00 +15°C° 0 mm 4 mps 749 mmHg 75%
18:00 +15°C° 0 mm 4 mps 749 mmHg 79%
19:00 +14°C° 0 mm 4 mps 749 mmHg 83%
20:00 +14°C° 0 mm 4 mps 749 mmHg 83%
21:00 +14°C° 0 mm 5 mps 749 mmHg 84%
22:00 +14°C° 0 mm 5 mps 748 mmHg 84%
23:00 +14°C° 0.2 mm 5 mps 748 mmHg 84%

Day after tomorrow, 23 October, Friday

Time Temperature Precipitation Wind Pressure Humidity
00:00 +14°C° 0.2 mm 5 mps 748 mmHg 85%
01:00 +14°C° 0.2 mm 5 mps 748 mmHg 85%
02:00 +14°C° 1.1 mm 5 mps 748 mmHg 88%
03:00 +13°C° 1.1 mm 5 mps 748 mmHg 91%
04:00 +13°C° 1.1 mm 4 mps 748 mmHg 94%
05:00 +13°C° 0.2 mm 4 mps 748 mmHg 94%
06:00 +13°C° 0.2 mm 4 mps 747 mmHg 94%
07:00 +13°C° 0.2 mm 4 mps 747 mmHg 94%
08:00 +13°C° 0.2 mm 4 mps 747 mmHg 89%
09:00 +14°C° 0.2 mm 5 mps 748 mmHg 84%
10:00 +15°C° 0.2 mm 5 mps 748 mmHg 80%
11:00 +15°C° 0 mm 5 mps 748 mmHg 75%
12:00 +16°C° 0 mm 5 mps 748 mmHg 70%
13:00 +16°C° 0 mm 5 mps 748 mmHg 66%
14:00 +15°C° 0 mm 4 mps 748 mmHg 69%
15:00 +16°C° 0 mm 3 mps 748 mmHg 72%
16:00 +15°C° 0 mm 2 mps 748 mmHg 75%
17:00 +14°C° 0 mm 2 mps 748 mmHg 79%
18:00 +13°C° 0 mm 1 mps 748 mmHg 83%
19:00 +12°C° 0 mm 1 mps 748 mmHg 87%
20:00 +12°C° 0 mm 1 mps 748 mmHg 88%
21:00 +11°C° 0 mm 1 mps 748 mmHg 89%
22:00 +11°C° 0 mm 1 mps 748 mmHg 90%
23:00 +11°C° 0 mm 1 mps 748 mmHg 91%

24 October, Saturday

Time Temperature Precipitation Wind Pressure Humidity
00:00 +10°C° 0 mm 1 mps 748 mmHg 92%
01:00 +9°C° 0 mm 2 mps 748 mmHg 92%
02:00 +9°C° 0.1 mm 2 mps 747 mmHg 93%
03:00 +9°C° 0.1 mm 3 mps 747 mmHg 94%
04:00 +9°C° 0.1 mm 3 mps 747 mmHg 95%
05:00 +10°C° 0.3 mm 4 mps 747 mmHg 94%
06:00 +10°C° 0.3 mm 4 mps 747 mmHg 93%
07:00 +9°C° 0.3 mm 5 mps 747 mmHg 92%
08:00 +10°C° 0 mm 6 mps 748 mmHg 87%
09:00 +10°C° 0 mm 6 mps 748 mmHg 82%
10:00 +11°C° 0 mm 7 mps 748 mmHg 78%
11:00 +11°C° 0.1 mm 7 mps 749 mmHg 73%
12:00 +11°C° 0.1 mm 7 mps 749 mmHg 68%
13:00 +11°C° 0.1 mm 6 mps 749 mmHg 64%
14:00 +12°C° 0 mm 5 mps 750 mmHg 66%
15:00 +11°C° 0 mm 4 mps 750 mmHg 69%
16:00 +10°C° 0 mm 3 mps 750 mmHg 71%
17:00 +10°C° 0 mm 3 mps 750 mmHg 74%
18:00 +9°C° 0 mm 3 mps 751 mmHg 77%
19:00 +8°C° 0 mm 2 mps 751 mmHg 80%
20:00 +7°C° 0 mm 2 mps 751 mmHg 80%
21:00 +7°C° 0 mm 2 mps 751 mmHg 80%
22:00 +7°C° 0 mm 2 mps 751 mmHg 80%
23:00 +7°C° 0 mm 3 mps 751 mmHg 82%

25 October, Sunday

Time Temperature Precipitation Wind Pressure Humidity
00:00 +7°C° 0 mm 3 mps 751 mmHg 83%
01:00 +7°C° 0 mm 3 mps 751 mmHg 85%
02:00 +8°C° 0 mm 3 mps 750 mmHg 88%
03:00 +8°C° 0 mm 3 mps 750 mmHg 91%
04:00 +7°C° 0 mm 4 mps 750 mmHg 94%
05:00 +6°C° 0 mm 4 mps 750 mmHg 94%
06:00 +6°C° 0 mm 4 mps 750 mmHg 95%
07:00 +6°C° 0 mm 4 mps 749 mmHg 95%
08:00 +8°C° 0 mm 4 mps 749 mmHg 90%
09:00 +9°C° 0 mm 5 mps 749 mmHg 85%
10:00 +10°C° 0 mm 5 mps 749 mmHg 80%
11:00 +13°C° 0 mm 5 mps 749 mmHg 76%
12:00 +14°C° 0 mm 5 mps 748 mmHg 72%
13:00 +15°C° 0 mm 6 mps 748 mmHg 67%
14:00 +14°C° 0 mm 5 mps 748 mmHg 69%
15:00 +14°C° 0 mm 4 mps 747 mmHg 71%
16:00 +14°C° 0 mm 4 mps 747 mmHg 73%
17:00 +13°C° 0 mm 4 mps 747 mmHg 75%
18:00 +12°C° 0 mm 4 mps 747 mmHg 77%
19:00 +12°C° 0 mm 5 mps 747 mmHg 79%
20:00 +12°C° 0 mm 5 mps 747 mmHg 80%
21:00 +10°C° 0 mm 5 mps 747 mmHg 81%
22:00 +11°C° 0 mm 4 mps 747 mmHg 82%
23:00 +11°C° 0 mm 4 mps 747 mmHg 84%

26 October, Monday

Time Temperature Precipitation Wind Pressure Humidity
00:00 +10°C° 0 mm 4 mps 746 mmHg 86%
01:00 +10°C° 0 mm 3 mps 746 mmHg 89%
02:00 +9°C° 0 mm 3 mps 746 mmHg 90%
03:00 +9°C° 0 mm 3 mps 746 mmHg 92%
04:00 +9°C° 0 mm 3 mps 746 mmHg 94%
05:00 +8°C° 0 mm 2 mps 746 mmHg 94%
06:00 +8°C° 0 mm 2 mps 746 mmHg 94%
07:00 +8°C° 0 mm 2 mps 746 mmHg 95%
08:00 +9°C° 0 mm 2 mps 746 mmHg 90%
09:00 +12°C° 0 mm 2 mps 746 mmHg 85%
10:00 +12°C° 0 mm 3 mps 746 mmHg 79%
11:00 +14°C° 0 mm 2 mps 746 mmHg 76%
12:00 +14°C° 0 mm 2 mps 746 mmHg 73%
13:00 +15°C° 0 mm 2 mps 746 mmHg 70%
14:00 +14°C° 0.1 mm 2 mps 746 mmHg 74%
15:00 +14°C° 0.1 mm 1 mps 746 mmHg 77%
16:00 +13°C° 0.1 mm 1 mps 745 mmHg 81%
17:00 +13°C° 0.1 mm 1 mps 746 mmHg 84%
18:00 +12°C° 0.1 mm 1 mps 746 mmHg 86%
19:00 +12°C° 0.1 mm 1 mps 746 mmHg 89%
20:00 +12°C° 0.1 mm 1 mps 746 mmHg 90%
21:00 +12°C° 0.1 mm 1 mps 746 mmHg 92%
22:00 +12°C° 0.1 mm 1 mps 746 mmHg 93%
23:00 +11°C° 0.1 mm 1 mps 746 mmHg 94%

27 October, Tuesday

Time Temperature Precipitation Wind Pressure Humidity
00:00 +11°C° 0.1 mm 1 mps 746 mmHg 95%
01:00 +11°C° 0.1 mm 1 mps 746 mmHg 96%
02:00 +11°C° 0.1 mm 1 mps 746 mmHg 96%
03:00 +10°C° 0.1 mm 2 mps 746 mmHg 96%
04:00 +10°C° 0.1 mm 2 mps 746 mmHg 96%
05:00 +10°C° 0.1 mm 2 mps 747 mmHg 96%
06:00 +10°C° 0.1 mm 2 mps 747 mmHg 96%
07:00 +10°C° 0.1 mm 2 mps 747 mmHg 95%
08:00 +10°C° 0.2 mm 2 mps 748 mmHg 94%
09:00 +10°C° 0.2 mm 3 mps 748 mmHg 93%
10:00 +11°C° 0.2 mm 3 mps 748 mmHg 92%
11:00 +11°C° 0.3 mm 3 mps 749 mmHg 91%
12:00 +11°C° 0.3 mm 3 mps 749 mmHg 90%
13:00 +11°C° 0.3 mm 3 mps 749 mmHg 89%
14:00 +11°C° 0.1 mm 3 mps 750 mmHg 89%
15:00 +10°C° 0.1 mm 3 mps 750 mmHg 88%
16:00 +10°C° 0.1 mm 2 mps 750 mmHg 88%
17:00 +9°C° 0 mm 2 mps 751 mmHg 90%
18:00 +9°C° 0 mm 2 mps 751 mmHg 92%
19:00 +9°C° 0 mm 1 mps 752 mmHg 94%
20:00 +9°C° 0 mm 1 mps 752 mmHg 94%
21:00 +8°C° 0 mm 1 mps 753 mmHg 93%
22:00 +8°C° 0 mm 1 mps 753 mmHg 93%
23:00 +8°C° 0 mm 1 mps 753 mmHg 93%
Show more